George/Botha, South Africa

7:57 PM SAST on February 24, 2017 (GMT +0200)
George

Weather History for FAGG - May, 2013

Change the Weather History Date:

Sunday, May 12, 2013

  Actual Average Record
Temperature  
Mean Temperature 61 °F -  
Max Temperature 76 °F 67 °F 89 °F (2001)
Min Temperature 46 °F 47 °F 46 °F (2013)
Degree Days  
Heating Degree Days 4    
Growing Degree Days 11 (Base 50)    
Moisture  
Dew Point 40 °F    
Average Humidity 46    
Maximum Humidity 72    
Minimum Humidity 18    
Precipitation  
Precipitation 0.00 in - - ()
Sea Level Pressure  
Sea Level Pressure 30.13 in    
Wind  
Wind Speed 3 mph ()    
Max Wind Speed 7 mph    
Max Gust Speed -    
Visibility 12.0 miles    
Events      
Averages and records for this station are not official NWS values.
T = Trace of Precipitation, MM = Missing Value Source: Averaged Metar Reports

Daily Weather History Graph

Daily Weather History Graph

Search for Another Location

Airport or City:

Trip Planner

Search our weather history database for the weather conditions in past years. The results will help you decide how hot, cold, wet, or windy it might be!

Date:

Astronomy

May. 12, 2013 Rise Set
Actual Time 7:13 AM SAST 5:39 PM SAST
Civil Twilight 6:47 AM SAST 6:06 PM SAST
Nautical Twilight 6:17 AM SAST 6:36 PM SAST
Astronomical Twilight 5:47 AM SAST 7:05 PM SAST
Moon 9:11 AM SAST (5/12) 7:36 PM SAST (5/12)
Length of Visible Light 11h 18m
Length of Day
10h 25m
Waxing Crescent, 5% of the Moon is Illuminated
May 12
Waxing Crescent
May 18
First Quarter
May 25
Full
May 31
Last Quarter
Jun 8
New

Hourly Weather History & Observations

Time (SAST) Temp. Dew Point Humidity Pressure Visibility Wind Dir Wind Speed Gust Speed Precip Events Conditions
12:00 AM 48.2 °F 39.2 °F 71% 30.18 in - North 4.6 mph - N/A   Clear
1:00 AM 48.2 °F 39.2 °F 71% 30.18 in - NNE 3.5 mph - N/A   Clear
2:00 AM 49 °F 38 °F 57% 30.19 in 25 mi North 3.5 mph - -  
2:00 AM 48.2 °F 39.2 °F 71% 30.15 in - North 2.3 mph - N/A   Clear
3:00 AM 50.0 °F 37.4 °F 62% 30.15 in - North 3.5 mph - N/A   Clear
4:00 AM 51.8 °F 35.6 °F 54% 30.15 in - North 4.6 mph - N/A   Clear
5:00 AM 52 °F 36 °F 42% 30.15 in 12 mi NNE 3.5 mph - -  
5:00 AM 51.8 °F 35.6 °F 54% 30.15 in - NNE 3.5 mph - N/A   Clear
6:00 AM 53.6 °F 35.6 °F 51% 30.15 in - NNW 2.3 mph - N/A   Clear
7:00 AM 51.8 °F 35.6 °F 54% 30.15 in - NNW 4.6 mph - N/A   Clear
8:00 AM 56 °F 35 °F 33% 30.16 in 12 mi NNE 3.5 mph - -  
8:00 AM 57.2 °F 35.6 °F 44% 30.15 in - NE 4.6 mph - N/A   Clear
9:00 AM 59.0 °F 44.6 °F 59% 30.15 in - Variable 2.3 mph - N/A   Clear
10:00 AM 68.0 °F 37.4 °F 33% 30.15 in - Variable 1.2 mph - N/A   Clear
11:00 AM 73 °F 39 °F 18% 30.17 in 12 mi SSE 2.3 mph - -  
11:00 AM 73.4 °F 39.2 °F 29% 30.15 in - Variable 2.3 mph - N/A   Clear
12:00 PM 75.2 °F 39.2 °F 27% 30.15 in - Variable 3.5 mph - N/A   Clear
1:00 PM 75.2 °F 42.8 °F 31% 30.12 in - SE 5.8 mph - N/A   Clear
2:00 PM 76 °F 43 °F 20% 30.08 in 12 mi SE 4.6 mph - -   Clear
2:00 PM 75.2 °F 42.8 °F 31% 30.09 in - Variable 2.3 mph - N/A   Clear
3:00 PM 75.2 °F 41.0 °F 29% 30.06 in - SSE 5.8 mph - N/A   Clear
4:00 PM 73.4 °F 41.0 °F 31% 30.06 in - SE 6.9 mph - N/A   Clear
5:00 PM 71 °F 40 °F 22% 30.08 in 12 mi SE 4.6 mph - -   Clear
5:00 PM 71.6 °F 41.0 °F 33% 30.09 in - SE 4.6 mph - N/A   Clear
6:00 PM 66.2 °F 41.0 °F 40% 30.09 in - NE 2.3 mph - N/A   Clear
7:00 PM 60.8 °F 44.6 °F 55% 30.12 in - Variable 2.3 mph - N/A   Clear
8:00 PM 56 °F 45 °F 57% 30.14 in 12 mi NW 4.6 mph - -  
8:00 PM 55.4 °F 44.6 °F 67% 30.12 in - NW 4.6 mph - N/A   Clear
9:00 PM 53.6 °F 44.6 °F 72% 30.15 in - WNW 6.9 mph - N/A   Clear
10:00 PM 53.6 °F 41.0 °F 62% 30.15 in - NW 5.8 mph - N/A   Clear